Location: Ar Ranvel
(48.3000°N, 4.8833°W)
Time: 02:45:16
(UTC+00:00)

SL-16 R/B - Visible Passes

Search period start: 23 October 2021 00:00
Search period end: 02 November 2021 00:00
Orbit: 842 x 846 km, 71.0° (Epoch: 22 October)

Date Brightness Start Highest point End Pass type
(mag) Time Alt. Az. Time Alt. Az. Time Alt. Az.
23 Oct 3.4 03:18:48 39° E 03:18:48 39° E 03:23:07 10° SE visible
23 Oct 2.7 05:00:50 34° W 05:01:46 36° WSW 05:06:53 10° S visible
23 Oct 2.6 18:07:54 10° S 18:13:10 41° ESE 18:18:28 10° NE visible
23 Oct 3.5 19:52:02 10° WSW 19:57:19 39° NW 20:02:38 10° NNE visible
23 Oct 5.0 21:41:20 10° NW 21:43:10 11° NNW 21:45:01 10° N visible
24 Oct 4.3 03:06:59 20° ESE 03:06:59 20° ESE 03:08:44 10° ESE visible
24 Oct 3.0 04:48:59 32° SW 04:48:59 32° SW 04:52:38 10° S visible
24 Oct 2.7 17:53:38 10° S 17:58:51 40° ESE 18:04:07 10° NE visible
24 Oct 3.4 19:37:40 10° WSW 19:42:59 40° NW 19:48:20 10° NNE visible
24 Oct 5.0 21:26:49 10° NW 21:28:48 12° NNW 21:30:47 10° N visible
25 Oct 4.0 04:37:04 17° SSW 04:37:04 17° SSW 04:38:20 10° S visible
25 Oct 2.7 17:39:21 10° S 17:44:33 38° ESE 17:49:46 10° NE visible
25 Oct 3.4 19:23:17 10° WSW 19:28:38 41° NW 19:34:00 10° NNE visible
25 Oct 5.0 21:12:18 10° NW 21:14:25 12° NNW 21:16:32 10° N visible
26 Oct 3.4 19:08:55 10° SW 19:14:17 42° NW 19:19:41 10° NNE visible
26 Oct 4.9 20:57:47 10° NW 21:00:02 12° NNW 21:02:17 10° N visible
27 Oct 3.3 18:54:33 10° SW 18:59:56 43° NW 19:05:22 10° NNE visible
27 Oct 4.9 20:43:18 10° NW 20:45:39 12° NNW 20:48:01 10° N visible
28 Oct 3.3 18:40:11 10° SW 18:45:35 45° NW 18:51:03 10° NNE visible
28 Oct 4.9 20:28:48 10° WNW 20:31:17 13° NNW 20:33:46 10° N visible
29 Oct 3.2 18:25:49 10° SW 18:31:15 46° NW 18:36:44 10° NNE visible
29 Oct 4.8 20:14:19 10° WNW 20:16:54 13° NNW 20:19:30 10° N visible
30 Oct 3.2 18:11:26 10° SW 18:16:55 48° NW 18:22:25 10° NNE visible
30 Oct 4.8 19:59:50 10° WNW 20:02:32 13° NNW 20:05:13 10° N visible
31 Oct 3.1 17:57:04 10° SW 18:02:34 49° NW 18:08:06 10° NNE visible
31 Oct 4.8 19:45:22 10° WNW 19:48:09 14° NNW 19:50:57 10° N visible
01 Nov 3.1 17:42:43 10° SW 17:48:14 51° NW 17:53:46 10° NNE visible
01 Nov 4.7 19:30:53 10° WNW 19:33:46 14° NNW 19:36:40 10° N visible
